This is the latest recevied weather packets stored in our database for station/object KGRR-WX. If no packets are shown the sender has not sent any weather packets the latest 10 day(s).
| Time | Temp. | Humidity | Pressure | Rain* | Wind** | Luminosity | Snow |
|---|---|---|---|---|---|---|---|
| 1777584621 | 9.44° C | 44% | 988.2 hPa | 0 mm | - | - | - |
| 1777583706 | 9.44° C | 44% | 988.2 hPa | 0 mm | - | - | - |
| 1777582815 | 9.44° C | 44% | 988.2 hPa | 0 mm | - | - | - |
| 1777581906 | 9.44° C | 44% | 987.6 hPa | 0 mm | - | - | - |
| 1777581021 | 10° C | 41% | 987.3 hPa | 0 mm | - | - | - |
| 1777580106 | 10° C | 41% | 987.3 hPa | 0 mm | - | - | - |
| 1777579225 | 10° C | 41% | 987.3 hPa | 0 mm | - | - | - |
| 1777578306 | 10° C | 42% | 987.6 hPa | 0 mm | - | - | - |
| 1777577413 | 10° C | 42% | 987.6 hPa | 0 mm | - | - | - |
| 1777576506 | 10° C | 42% | 987.6 hPa | 0 mm | - | - | - |
| 1777575623 | 9.44° C | 42% | 987.6 hPa | 0 mm | - | - | - |
| 1777574706 | 9.44° C | 48% | 987.4 hPa | 0 mm | - | - | - |
| 1777573812 | 9.44° C | 48% | 987.3 hPa | 0 mm | - | - | - |
| 1777572904 | 9.44° C | 48% | 987.3 hPa | 0 mm | - | - | - |
| 1777572024 | 9.44° C | 48% | 987.3 hPa | 0 mm | - | - | - |
| 1777571105 | 9.44° C | 50% | 987.7 hPa | 0 mm | - | - | - |
| 1777570220 | 9.44° C | 52% | 988.1 hPa | 0 mm | - | - | - |
| 1777569305 | 8.89° C | 52% | 988.1 hPa | 0 mm | - | - | - |
| 1777568423 | 8.89° C | 52% | 988.1 hPa | 0 mm | - | - | - |
| 1777567505 | 8.89° C | 56% | 987 hPa | 0 mm | - | - | - |
| 1777566620 | 8.89° C | 61% | 987.4 hPa | 0 mm | - | - | - |
| 1777565705 | 8.33° C | 61% | 987.4 hPa | 0 mm | - | - | - |
| 1777564825 | 8.33° C | 61% | 987.4 hPa | 0 mm | - | - | - |
| 1777563904 | 8.33° C | 68% | 987.1 hPa | 0 mm | - | - | - |
| 1777563021 | 8.33° C | 70% | 987.7 hPa | 0 mm | - | - | - |
* Rain latest hour (hover to see other rain measurements)
** Current wind speed in m/s (hover to see current wind gust speed)